H1 CPF 2 NER 2024 8 10 9 223 01 glonass142 H2 2001801 9142 45358 2024 8 10 0 0 0 2024 8 13 23 45 0 900 1 1 0 0 0 1 H9 10 0 60532 0.00000 0 24321530.649 4328897.424 -6396032.239 10 0 60532 900.00000 0 24937503.766 4339415.484 -3254263.762 10 0 60532 1800.00000 0 25169782.974 4228566.455 -49363.797 10 0 60532 2700.00000 0 25002506.828 4049522.676 3156495.631 10 0 60532 3600.00000 0 24432982.374 3857704.092 6301150.566 10 0 60532 4500.00000 0 23471845.071 3708198.465 9323646.278 10 0 60532 5400.00000 0 22142680.660 3653201.833 12165413.114 10 0 60532 6300.00000 0 20481125.047 3739587.278 14771394.604 10 0 60532 7200.00000 0 18533479.846 4006704.491 17091106.521 10 0 60532 8100.00000 0 16354901.261 4484502.757 19079607.073 10 0 60532 9000.00000 0 14007237.323 5192056.407 20698360.252 10 0 60532 9900.00000 0 11556602.914 6136554.990 21915976.447 10 0 60532 10800.00000 0 9070792.493 7312801.079 22708816.802 10 0 60532 11700.00000 0 6616636.960 8703237.719 23061450.207 10 0 60532 12600.00000 0 4257413.304 10278505.568 22966954.487 10 0 60532 13500.00000 0 2050413.391 11998508.003 22427055.965 10 0 60532 14400.00000 0 44771.780 13813941.402 21452104.432 10 0 60532 15300.00000 0 -1720358.071 15668228.451 20060883.312 10 0 60532 16200.00000 0 -3217204.077 17499775.436 18280257.744 10 0 60532 17100.00000 0 -4430294.441 19244460.642 16144666.229 10 0 60532 18000.00000 0 -5356857.172 20838250.887 13695464.424 10 0 60532 18900.00000 0 -6006683.637 22219837.312 10980132.593 10 0 60532 19800.00000 0 -6401461.994 23333180.098 8051361.056 10 0 60532 20700.00000 0 -6573608.612 24129854.965 4966030.675 10 0 60532 21600.00000 0 -6564646.902 24571102.113 1784107.827 10 0 60532 22500.00000 0 -6423202.408 24629490.309 -1432524.602 10 0 60532 23400.00000 0 -6202699.487 24290124.830 -4621276.968 10 0 60532 24300.00000 0 -5958857.967 23551347.059 -7720079.057 10 0 60532 25200.00000 0 -5747096.907 22424895.100 -10668597.805 10 0 60532 26100.00000 0 -5619956.741 20935517.664 -13409421.693 10 0 60532 27000.00000 0 -5624650.398 19120056.831 -15889187.653 10 0 60532 27900.00000 0 -5800848.470 17026037.867 -18059627.611 10 0 60532 28800.00000 0 -6178793.438 14709825.316 -19878513.519 10 0 60532 29700.00000 0 -6777823.788 12234422.825 -21310482.092 10 0 60532 30600.00000 0 -7605371.245 9667009.147 -22327723.068 10 0 60532 31500.00000 0 -8656474.079 7076313.676 -22910517.758 10 0 60532 32400.00000 0 -9913827.425 4529941.271 -23047617.812 10 0 60532 33300.00000 0 -11348368.789 2091757.944 -22736457.415 10 0 60532 34200.00000 0 -12920374.199 -180553.957 -21983195.383 10 0 60532 35100.00000 0 -14581019.025 -2237669.912 -20802587.016 10 0 60532 36000.00000 0 -16274337.933 -4040437.232 -19217688.762 10 0 60532 36900.00000 0 -17939501.732 -5561254.705 -17259401.956 10 0 60532 37800.00000 0 -19513315.572 -6784962.017 -14965864.903 10 0 60532 38700.00000 0 -20932833.826 -7709203.817 -12381705.442 10 0 60532 39600.00000 0 -22137982.115 -8344255.222 -9557168.813 10 0 60532 40500.00000 0 -23074076.551 -8712318.124 -6547137.974 10 0 60532 41400.00000 0 -23694134.903 -8846319.859 -3410065.604 10 0 60532 42300.00000 0 -23960882.815 -8788266.428 -206838.720 10 0 60532 43200.00000 0 -23848371.327 -8587221.123 3000401.927 10 0 60532 44100.00000 0 -23343138.211 -8296994.869 6149464.692 10 0 60532 45000.00000 0 -22444864.750 -7973646.448 9179308.787 10 0 60532 45900.00000 0 -21166500.690 -7672898.463 12031221.827 10 0 60532 46800.00000 0 -19533852.200 -7447578.184 14649950.738 10 0 60532 47700.00000 0 -17584649.974 -7345191.078 16984764.616 10 0 60532 48600.00000 0 -15367136.128 -7405729.091 18990429.644 10 0 60532 49500.00000 0 -12938228.192 -7659805.717 20628078.037 10 0 60532 50400.00000 0 -10361335.874 -8127196.241 21865954.983 10 0 60532 51300.00000 0 -7703920.326 -8815844.610 22680029.957 10 0 60532 52200.00000 0 -5034896.073 -9721379.094 23054461.180 10 0 60532 53100.00000 0 -2421982.167 -10827157.836 22981904.627 10 0 60532 54000.00000 0 70888.872 -12104843.541 22463661.657 10 0 60532 54900.00000 0 2385998.072 -13515484.676 21509662.123 10 0 60532 55800.00000 0 4474003.281 -15011059.500 20138282.607 10 0 60532 56700.00000 0 6295749.693 -16536419.925 18376002.389 10 0 60532 57600.00000 0 7823652.949 -18031555.293 16256902.588 10 0 60532 58500.00000 0 9042597.505 -19434082.433 13822016.975 10 0 60532 59400.00000 0 9950313.019 -20681858.375 11118545.799 10 0 60532 60300.00000 0 10557213.087 -21715606.377 8198946.837 10 0 60532 61200.00000 0 10885703.183 -22481444.739 5119920.602 10 0 60532 62100.00000 0 10968987.047 -22933211.349 1941309.029 10 0 60532 63000.00000 0 10849422.157 -23034485.040 -1275070.915 10 0 60532 63900.00000 0 10576494.180 -22760217.242 -4466635.539 10 0 60532 64800.00000 0 10204496.803 -22097903.701 -7571260.394 10 0 60532 65700.00000 0 9790016.078 -21048245.394 -10528499.015 10 0 60532 66600.00000 0 9389326.960 -19625269.503 -13280769.553 10 0 60532 67500.00000 0 9055813.545 -17855904.276 -15774485.095 10 0 60532 68400.00000 0 8837523.480 -15779024.913 -17961104.703 10 0 60532 69300.00000 0 8774961.243 -13444010.100 -19798083.923 10 0 60532 70200.00000 0 8899214.589 -10908869.608 -21249705.860 10 0 60532 71100.00000 0 9230494.112 -8238021.326 -22287776.485 10 0 60532 72000.00000 0 9777148.083 -5499810.877 -22892170.800 10 0 60532 72900.00000 0 10535194.370 -2763877.443 -23051219.636 10 0 60532 73800.00000 0 11488389.232 -98475.609 -22761930.096 10 0 60532 74700.00000 0 12608829.972 2432135.407 -22030035.989 10 0 60532 75600.00000 0 13858065.889 4770126.973 -20869877.934 10 0 60532 76500.00000 0 15188670.572 6866260.215 -19304116.019 10 0 60532 77400.00000 0 16546209.185 8681680.379 -17363281.148 10 0 60532 78300.00000 0 17871517.833 10189273.144 -15085174.205 10 0 60532 79200.00000 0 19103199.111 11374528.059 -12514125.044 10 0 60532 80100.00000 0 20180228.761 12235874.962 -9700125.983 10 0 60532 81000.00000 0 21044564.101 12784481.444 -6697856.941 10 0 60532 81900.00000 0 21643644.511 13043521.755 -3565621.286 10 0 60532 82800.00000 0 21932678.899 13046949.696 -364213.252 10 0 60532 83700.00000 0 21876624.415 12837828.849 2844260.899 10 0 60532 84600.00000 0 21451773.338 12466291.676 5997585.090 10 0 60532 85500.00000 0 20646881.749 11987214.492 9034635.677 10 0 60533 0.00000 0 19463792.861 11457706.903 11896560.377 10 0 60533 900.00000 0 17917528.075 10934521.478 14527912.898 10 0 60533 1800.00000 0 16035843.428 10471493.512 16877718.003 10 0 60533 2700.00000 0 13858267.416 10117117.439 18900452.180 10 0 60533 3600.00000 0 11434661.115 9912362.267 20556917.884 10 0 60533 4500.00000 0 8823359.098 9888817.269 21814996.784 10 0 60533 5400.00000 0 6088967.374 10067245.623 22650268.006 10 0 60533 6300.00000 0 3299908.492 10456606.776 23046480.014 10 0 60533 7200.00000 0 525814.226 11053588.827 22995867.415 10 0 60533 8100.00000 0 -2165127.459 11842671.216 22499306.607 10 0 60533 9000.00000 0 -4708762.560 12796716.071 21566306.997 10 0 60533 9900.00000 0 -7047392.048 13878064.674 20214837.324 10 0 60533 10800.00000 0 -9131924.260 15040094.432 18470989.501 10 0 60533 11700.00000 0 -10923669.915 16229172.470 16368485.328 10 0 60533 12600.00000 0 -12395705.483 17386925.038 13948034.383 10 0 60533 13500.00000 0 -13533748.273 18452728.320 11256554.314 10 0 60533 14400.00000 0 -14336506.720 19366316.436 8346267.579 10 0 60533 15300.00000 0 -14815491.206 20070396.850 5273691.450 10 0 60533 16200.00000 0 -14994293.370 20513162.526 2098540.477 10 0 60533 17100.00000 0 -14907364.387 20650593.975 -1117437.240 10 0 60533 18000.00000 0 -14598344.069 20448452.775 -4311666.877 10 0 60533 18900.00000 0 -14118011.888 19883880.902 -7421972.588 10 0 60533 19800.00000 0 -13521947.359 18946536.790 -10387797.210 10 0 60533 20700.00000 0 -12867999.739 17639218.636 -13151391.089 10 0 60533 21600.00000 0 -12213675.241 15977947.307 -15658945.748 10 0 60533 22500.00000 0 -11613553.477 13991504.243 -17861649.369 10 0 60533 23400.00000 0 -11116843.485 11720442.935 -19716642.766 10 0 60533 24300.00000 0 -10765183.593 9215614.975 -21187856.768 10 0 60533 25200.00000 0 -10590778.692 6536272.117 -22246714.586 10 0 60533 26100.00000 0 -10614953.990 3747823.643 -22872685.595 10 0 60533 27000.00000 0 -10847186.308 919342.671 -23053680.145 10 0 60533 27900.00000 0 -11284653.606 -1879074.702 -22786278.268 10 0 60533 28800.00000 0 -11912321.348 -4578987.537 -22075788.439 10 0 60533 29700.00000 0 -12703561.560 -7116214.399 -20936135.913 10 0 60533 30600.00000 0 -13621277.955 -9433256.196 -19389583.400 10 0 60533 31500.00000 0 -14619489.218 -11481437.581 -17466290.036 10 0 60533 32400.00000 0 -15645303.255 -13222679.004 -15203717.661 10 0 60533 33300.00000 0 -16641198.934 -14630827.073 -12645896.280 10 0 60533 34200.00000 0 -17547518.875 -15692489.426 -9842563.282 10 0 60533 35100.00000 0 -18305068.215 -16407341.125 -6848193.403 10 0 60533 36000.00000 0 -18857709.736 -16787891.653 -3720938.428 10 0 60533 36900.00000 0 -19154846.155 -16858724.172 -521497.489 10 0 60533 37800.00000 0 -19153684.992 -16655240.623 2688060.039 10 0 60533 38700.00000 0 -18821190.836 -16221966.951 5845496.129 10 0 60533 39600.00000 0 -18135643.095 -15610490.919 8889606.827 10 0 60533 40500.00000 0 -17087733.660 -14877120.022 11761403.021 10 0 60533 41400.00000 0 -15681158.319 -14080358.522 14405246.742 10 0 60533 42300.00000 0 -13932676.875 -13278309.829 16769921.435 10 0 60533 43200.00000 0 -11871638.864 -12526113.272 18809616.216 10 0 60533 44100.00000 0 -9538993.923 -11873522.603 20484805.860 10 0 60533 45000.00000 0 -6985827.029 -11362727.411 21763010.291 10 0 60533 45900.00000 0 -4271478.286 -11026508.403 22619419.705 10 0 60533 46800.00000 0 -1461323.912 -10886803.571 23037373.866 10 0 60533 47700.00000 0 1375691.023 -10953745.230 23008686.686 10 0 60533 48600.00000 0 4169667.385 -11225208.439 22533809.919 10 0 60533 49500.00000 0 6852407.425 -11686890.241 21621832.516 10 0 60533 50400.00000 0 9360002.105 -12312917.158 20290315.031 10 0 60533 51300.00000 0 11635244.058 -13066956.482 18564961.375 10 0 60533 52200.00000 0 13629766.789 -13903785.808 16479133.066 10 0 60533 53100.00000 0 15305821.578 -14771255.960 14073214.199 10 0 60533 54000.00000 0 16637618.302 -15612565.646 11393838.168 10 0 60533 54900.00000 0 17612174.154 -16368752.664 8492990.092 10 0 60533 55800.00000 0 18229634.632 -16981296.833 5427001.614 10 0 60533 56700.00000 0 18503053.187 -17394724.533 2255457.188 10 0 60533 57600.00000 0 18457638.744 -17559104.146 -959966.921 10 0 60533 58500.00000 0 18129502.873 -17432325.791 -4156707.887 10 0 60533 59400.00000 0 17563959.812 -16982067.580 -7272541.664 10 0 60533 60300.00000 0 16813451.656 -16187363.640 -10246803.566 10 0 60533 61200.00000 0 15935187.225 -15039706.004 -13021579.194 10 0 60533 62100.00000 0 14988595.359 -13543632.275 -15542841.392 10 0 60533 63000.00000 0 14032701.339 -11716772.866 -17761510.131 10 0 60533 63900.00000 0 13123538.302 -9589354.695 -19634413.864 10 0 60533 64800.00000 0 12311703.855 -7203181.310 -21125133.194 10 0 60533 65700.00000 0 11640165.629 -4610131.633 -22204710.236 10 0 60533 66600.00000 0 11142408.676 -1870239.783 -22852209.987 10 0 60533 67500.00000 0 10841002.786 950563.938 -23055123.133 10 0 60533 68400.00000 0 10746649.754 3782956.873 -22809603.018 10 0 60533 69300.00000 0 10857750.141 6556868.389 -22120532.739 10 0 60533 70200.00000 0 11160506.953 9204155.050 -21001421.755 10 0 60533 71100.00000 0 11629560.994 11661195.708 -19474134.589 10 0 60533 72000.00000 0 12229130.190 13871299.193 -17568457.452 10 0 60533 72900.00000 0 12914604.012 15786825.324 -15321511.642 10 0 60533 73800.00000 0 13634525.032 17370932.080 -12777025.477 10 0 60533 74700.00000 0 14332873.477 18598877.534 -9984479.235 10 0 60533 75600.00000 0 14951557.984 19458823.802 -6998139.964 10 0 60533 76500.00000 0 15433007.200 19952111.111 -3876005.107 10 0 60533 77400.00000 0 15722752.742 20092992.240 -678675.687 10 0 60533 78300.00000 0 15771894.471 19907840.137 2531818.975 10 0 60533 79200.00000 0 15539344.255 19433863.504 5693222.094 10 0 60533 80100.00000 0 14993753.644 18717385.550 8744252.563 10 0 60533 81000.00000 0 14115044.374 17811759.143 11625787.243 10 0 60533 81900.00000 0 12895477.206 16775006.533 14281999.834 10 0 60533 82800.00000 0 11340213.871 15667283.000 16661434.799 10 0 60533 83700.00000 0 9467348.081 14548270.818 18717996.208 10 0 60533 84600.00000 0 7307403.451 13474612.513 20411833.183 10 0 60533 85500.00000 0 4902318.257 12497490.485 21710105.601 10 0 60534 0.00000 0 2303958.193 11660453.828 22587616.015 10 0 60534 900.00000 0 -427783.992 10997582.322 23027296.583 10 0 60534 1800.00000 0 -3227221.200 10532065.070 23020540.931 10 0 60534 2700.00000 0 -6025350.732 10275251.511 22567376.190 10 0 60534 3600.00000 0 -8752474.537 10226215.701 21676470.362 10 0 60534 4500.00000 0 -11340855.118 10371851.944 20364974.808 10 0 60534 5400.00000 0 -13727297.920 10687498.389 18658203.898 10 0 60534 6300.00000 0 -15855553.887 11138063.167 16589156.871 10 0 60534 7200.00000 0 -17678442.810 11679606.582 14197889.934 10 0 60534 8100.00000 0 -19159609.268 12261313.515 11530749.514 10 0 60534 9000.00000 0 -20274837.826 12827773.547 8639480.474 10 0 60534 9900.00000 0 -21012872.210 13321472.851 5580225.805 10 0 60534 10800.00000 0 -21375703.812 13685392.480 2412436.816 10 0 60534 11700.00000 0 -21378317.096 13865602.648 -802285.082 10 0 60534 12600.00000 0 -21047902.451 13813742.277 -4001392.008 10 0 60534 13500.00000 0 -20422569.663 13489277.573 -7122614.563 10 0 60534 14400.00000 0 -19549616.618 12861442.458 -10105183.254 10 0 60534 15300.00000 0 -18483426.808 11910777.123 -12891021.481 10 0 60534 16200.00000 0 -17283085.234 10630197.956 -15425885.719 10 0 60534 17100.00000 0 -16009814.213 9025552.118 -17660429.742 10 0 60534 18000.00000 0 -14724338.264 7115632.014 -19551171.319 10 0 60534 18900.00000 0 -13484290.045 4931647.897 -21061342.104 10 0 60534 19800.00000 0 -12341767.284 2516179.914 -22161603.989 10 0 60534 20700.00000 0 -11341143.963 -78347.111 -22830618.046 10 0 60534 21600.00000 0 -10517227.861 -2791602.740 -23055455.357 10 0 60534 22500.00000 0 -9893841.576 -5557623.144 -22831842.238 10 0 60534 23400.00000 0 -9482885.997 -8307321.882 -22164235.714 10 0 60534 24300.00000 0 -9283924.611 -10971134.870 -21065728.416 10 0 60534 25200.00000 0 -9284304.922 -13481689.751 -19557785.352 10 0 60534 26100.00000 0 -9459810.626 -15776388.987 -17669818.219 10 0 60534 27000.00000 0 -9775815.748 -17799799.773 -15438605.978 10 0 60534 27900.00000 0 -10188890.985 -19505752.173 -12907573.328 10 0 60534 28800.00000 0 -10648793.486 -20859059.087 -10125941.415 10 0 60534 29700.00000 0 -11100755.276 -21836787.500 -7147767.540 10 0 60534 30600.00000 0 -11487973.208 -22429029.482 -4030892.730 10 0 60534 31500.00000 0 -11754194.811 -22639142.035 -835817.823 10 0 60534 32400.00000 0 -11846290.617 -22483447.307 2375469.982 10 0 60534 33300.00000 0 -11716704.345 -21990407.224 5540697.271 10 0 60534 34200.00000 0 -11325677.495 -21199308.366 8598507.950 10 0 60534 35100.00000 0 -10643154.601 -20158513.249 11489647.033 10 0 60534 36000.00000 0 -9650288.785 -18923352.037 14158102.112 10 0 60534 36900.00000 0 -8340484.069 -17553743.412 16552180.848 10 0 60534 37800.00000 0 -6719930.241 -16111644.356 18625504.357 10 0 60534 38700.00000 0 -4807607.108 -14658435.296 20337898.032 10 0 60534 39600.00000 0 -2634756.931 -13252349.548 21656163.410 10 0 60534 40500.00000 0 -243845.733 -11946053.810 22554716.946 10 0 60534 41400.00000 0 2312944.873 -10784480.074 23016084.011 10 0 60534 42300.00000 0 4975634.323 -9802998.805 23031238.953 10 0 60534 43200.00000 0 7678690.436 -9026009.131 22599784.783 10 0 60534 44100.00000 0 10353515.972 -8466004.554 21729968.748 10 0 60534 45000.00000 0 12931072.832 -8123153.150 20438532.908 10 0 60534 45900.00000 0 15344536.351 -7985409.931 18750401.696 10 0 60534 46800.00000 0 17531870.486 -8029157.012 16698211.364 10 0 60534 47700.00000 0 19438217.412 -8220345.196 14321689.187 10 0 60534 48600.00000 0 21018002.260 -8516089.477 11666893.231 10 0 60534 49500.00000 0 22236665.109 -8866651.712 8785326.314 10 0 60534 50400.00000 0 23071947.420 -9217727.048 5732940.599 10 0 60534 51300.00000 0 23514678.532 -9512937.436 2569051.687 10 0 60534 52200.00000 0 23569028.675 -9696426.346 -644816.743 10 0 60534 53100.00000 0 23252217.343 -9715444.011 -3846134.871 10 0 60534 54000.00000 0 22593689.082 -9522812.559 -6972591.183 10 0 60534 54900.00000 0 21633791.343 -9079165.156 -9963314.629 10 0 60534 55800.00000 0 20422010.400 -8354862.708 -12760069.558 10 0 60534 56700.00000 0 19014840.242 -7331505.349 -15308399.055 10 0 60534 57600.00000 0 17473374.971 -6002973.138 -17558693.436 10 0 60534 58500.00000 0 15860726.988 -4375950.552 -19467162.242 10 0 60534 59400.00000 0 14239380.474 -2469911.366 -20996690.328 10 0 60534 60300.00000 0 12668592.177 -316563.473 -22117561.164 10 0 60534 61200.00000 0 11201949.173 2041223.820 -22808033.332 10 0 60534 62100.00000 0 9885186.291 4550965.692 -23054759.338 10 0 60534 63000.00000 0 8754354.476 7152516.604 -22853039.096 10 0 60534 63900.00000 0 7834416.291 9780352.644 -22206903.758 10 0 60534 64800.00000 0 7138326.433 12366086.408 -21129028.907 10 0 60534 65700.00000 0 6666634.492 14841109.835 -19640479.409 10 0 60534 66600.00000 0 6407625.124 17139255.168 -17770291.415 10 0 60534 67500.00000 0 6337988.133 19199363.609 -15554900.142 10 0 60534 68400.00000 0 6423988.659 20967655.226 -13037424.884 10 0 60534 69300.00000 0 6623086.759 22399801.968 -10266825.490 10 0 60534 70200.00000 0 6885936.828 23462618.405 -7296947.015 10 0 60534 71100.00000 0 7158681.537 24135300.555 -4185471.263 10 0 60534 72000.00000 0 7385442.582 24410162.149 -992795.825 10 0 60534 72900.00000 0 7510902.669 24292838.961 2219137.453 10 0 60534 73800.00000 0 7482869.267 23801953.733 5388041.811 10 0 60534 74700.00000 0 7254711.795 22968256.975 8452489.442 10 0 60534 75600.00000 0 6787569.404 21833280.609 11353096.697 10 0 60534 76500.00000 0 6052236.169 20447561.458 14033668.043 10 0 60534 77400.00000 0 5030644.178 18868509.365 16442277.105 10 0 60534 78300.00000 0 3716881.843 17158009.237 18532264.525 10 0 60534 79200.00000 0 2117704.128 15379856.984 20263134.150 10 0 60534 80100.00000 0 252512.416 13597135.976 21601331.020 10 0 60534 81000.00000 0 -1847196.343 11869642.768 22520886.911 10 0 60534 81900.00000 0 -4138889.735 10251468.604 23003921.624 10 0 60534 82800.00000 0 -6570526.786 8788836.690 23040990.745 10 0 60534 83700.00000 0 -9082490.016 7518284.552 22631273.276 10 0 60534 84600.00000 0 -11609844.216 6465266.601 21782595.289 10 0 60534 85500.00000 0 -14084829.848 5643234.787 20511288.571 10 0 60535 0.00000 0 -16439488.783 5053235.513 18841886.264 10 0 60535 900.00000 0 -18608315.654 4684039.408 16806659.285 10 0 60535 1800.00000 0 -20530822.136 4512799.388 14445003.616 10 0 60535 2700.00000 0 -22153911.828 4506208.600 11802686.086 10 0 60535 3600.00000 0 -23433963.401 4622110.592 8930964.333 10 0 60535 4500.00000 0 -24338535.757 4811493.639 5885596.400 10 0 60535 5400.00000 0 -24847622.882 5020784.988 2725758.834 10 0 60535 6300.00000 0 -24954405.019 5194347.647 -487105.735 10 0 60535 7200.00000 0 -24665463.757 5277073.308 -3690488.779 10 0 60535 8100.00000 0 -24000451.394 5216960.530 -6822039.775 10 0 60535 9000.00000 0 -22991228.072 4967567.608 -9820789.057 10 0 60535 9900.00000 0 -21680502.910 4490234.657 -12628344.662 10 0 60535 10800.00000 0 -20120036.585 3755979.166 -15190038.769 10 0 60535 11700.00000 0 -18368481.447 2746983.193 -17456000.389 10 0 60535 12600.00000 0 -16488950.743 1457607.795 -19382132.590 10 0 60535 13500.00000 0 -14546419.834 -105109.467 -20930974.706 10 0 60535 14400.00000 0 -12605069.174 -1921496.092 -22072432.549 10 0 60535 15300.00000 0 -10725681.083 -3959824.408 -22784362.434 10 0 60535 16200.00000 0 -8963199.562 -6177405.912 -23052997.983 10 0 60535 17100.00000 0 -7364555.222 -8522154.834 -22873211.912 10 0 60535 18000.00000 0 -5966845.827 -10934555.804 -22248608.264 10 0 60535 18900.00000 0 -4795947.623 -13349953.617 -21191443.976 10 0 60535 19800.00000 0 -3865614.273 -15701069.715 -19722381.867 10 0 60535 20700.00000 0 -3177099.535 -17920640.508 -17870080.433 10 0 60535 21600.00000 0 -2719317.681 -19944067.748 -15670628.887 10 0 60535 22500.00000 0 -2469533.075 -21711970.729 -13166838.781 10 0 60535 23400.00000 0 -2394548.099 -23172534.237 -10407406.349 10 0 60535 24300.00000 0 -2452337.735 -24283554.905 -7445962.125 10 0 60535 25200.00000 0 -2594060.532 -25014101.193 -4340026.485 10 0 60535 26100.00000 0 -2766359.974 -25345718.501 -1149891.697 10 0 60535 27000.00000 0 -2913858.220 -25273129.896 2062547.736 10 0 60535 27900.00000 0 -2981736.353 -24804404.117 5234993.645 10 0 60535 28800.00000 0 -2918291.874 -23960584.888 8305948.371 10 0 60535 29700.00000 0 -2677365.319 -22774797.762 11215901.421 10 0 60535 30600.00000 0 -2220533.596 -21290872.543 13908475.939 10 0 60535 31500.00000 0 -1518977.576 -19561539.238 16331513.228 10 0 60535 32400.00000 0 -554945.140 -17646272.992 18438075.075 10 0 60535 33300.00000 0 677252.147 -15608877.724 20187345.252 10 0 60535 34200.00000 0 2170751.189 -13514908.779 21545413.566 10 0 60535 35100.00000 0 3906179.744 -11429041.200 22485928.147 10 0 60535 36000.00000 0 5852228.588 -9412492.290 22990604.002 10 0 60535 36900.00000 0 7966731.144 -7520604.730 23049578.463 10 0 60535 37800.00000 0 10198207.380 -5800689.844 22661606.767 10 0 60535 38700.00000 0 12487809.586 -4290219.855 21834093.813 10 0 60535 39600.00000 0 14771590.864 -3015443.736 20582960.879 10 0 60535 40500.00000 0 16983003.581 -1990483.827 18932349.010 10 0 60535 41400.00000 0 19055525.139 -1216950.629 16914163.700 10 0 60535 42300.00000 0 20925302.582 -684091.801 14567468.423 10 0 60535 43200.00000 0 22533706.199 -369469.114 11937737.556 10 0 60535 44100.00000 0 23829685.531 -240134.991 9075982.036 10 0 60535 45000.00000 0 24771828.738 -254259.145 6037763.934 10 0 60535 45900.00000 0 25330038.364 -363136.572 2882118.572 10 0 60535 46800.00000 0 25486752.196 -513491.706 -329594.951 10 0 60535 47700.00000 0 25237656.910 -649980.640 -3534892.122 10 0 60535 48600.00000 0 24591863.505 -717784.505 -6671386.284 10 0 60535 49500.00000 0 23571536.398 -665182.921 -9678012.090 10 0 60535 50400.00000 0 22210991.235 -445997.050 -12496224.158 10 0 60535 51300.00000 0 20555299.232 -21797.200 -15071146.522 10 0 60535 52200.00000 0 18658456.824 636220.051 -17352649.469 10 0 60535 53100.00000 0 16581197.948 1545766.117 -19296331.945 10 0 60535 54000.00000 0 14388541.328 2712469.329 -20864389.880 10 0 60535 54900.00000 0 12147176.187 4129401.492 -22026353.285 10 0 60535 55800.00000 0 9922796.423 5777142.954 -22759677.786 10 0 60535 56700.00000 0 7777495.066 7624384.151 -23050179.396 10 0 60535 57600.00000 0 5767327.918 9629038.886 -22892304.557 10 0 60535 58500.00000 0 3940147.811 11739822.996 -22289230.753 10 0 60535 59400.00000 0 2333799.128 13898232.484 -21252796.403 10 0 60535 60300.00000 0 974746.802 16040838.524 -19803261.989 10 0 60535 61200.00000 0 -122804.440 18101803.439 -17968907.624 10 0 60535 62100.00000 0 -957265.579 20015512.636 -15785475.351 10 0 60535 63000.00000 0 -1539480.643 21719212.624 -13295467.404 10 0 60535 63900.00000 0 -1892015.607 23155545.165 -10547314.425 10 0 60535 64800.00000 0 -2047950.679 24274871.967 -7594430.087 10 0 60535 65700.00000 0 -2049228.550 25037293.125 -4494170.703 10 0 60535 66600.00000 0 -1944629.715 25414275.475 -1306720.300 10 0 60535 67500.00000 0 -1787461.447 25389823.285 1906077.077 10 0 60535 68400.00000 0 -1633058.839 24961143.066 5081915.059 10 0 60535 69300.00000 0 -1536203.949 24138775.357 8159229.403 10 0 60535 70200.00000 0 -1548572.267 22946188.629 11078385.999 10 0 60535 71100.00000 0 -1716314.329 21418852.736 13782829.754 10 0 60535 72000.00000 0 -2077874.445 19602830.874 16220172.580 10 0 60535 72900.00000 0 -2662138.410 17552948.861 18343200.118 10 0 60535 73800.00000 0 -3486988.239 15330617.787 20110778.506 10 0 60535 74700.00000 0 -4558324.976 13001400.235 21488644.465 10 0 60535 75600.00000 0 -5869601.201 10632420.546 22450064.270 10 0 60535 76500.00000 0 -7401883.802 8289725.785 22976349.535 10 0 60535 77400.00000 0 -9124445.708 6035706.040 23057220.281 10 0 60535 78300.00000 0 -10995863.433 3926680.073 22691008.427 10 0 60535 79200.00000 0 -12965576.433 2010745.569 21884697.589 10 0 60535 80100.00000 0 -14975845.040 325982.492 20653797.847 10 0 60535 81000.00000 0 -16964027.061 -1100916.449 19022057.043 10 0 60535 81900.00000 0 -18865079.580 -2255531.651 17021013.093 10 0 60535 82800.00000 0 -20614182.652 -3136082.084 14689394.728 10 0 60535 83700.00000 0 -22149375.978 -3753255.267 12072381.049 10 0 60535 84600.00000 0 -23414098.446 -4129508.929 9220733.120 10 0 60535 85500.00000 0 -24359523.886 -4297873.768 6189813.619 99